User: anonymous
Location: Granada
(37.1830°N, 3.6000°W)
Time: 04:10:50
(UTC+02:00)
Language:

Iridium 70 - Orbit

View from above orbital plane
View from above orbital plane
View from above satellite
View from above satellite

Ground track
Ground track

The orbit data is extracted from the following two-line orbital elements,

1 25342U 98032A   14241.26975626  .00000202  00000-0  65239-4 0  9299
2 25342 086.3949 291.7645 0002541 109.6151 293.8864 14.34216126852483
Epoch (UTC): 29 August 2014 06:28:26
Eccentricity: 0.0002541
inclination: 86.3949°
perigee height: 776 km
apogee height: 779 km
right ascension of ascending node: 291.7645°
argument of perigee: 109.6151°
revolutions per day: 14.34216126
mean anomaly at epoch: 293.8864°
orbit number at epoch: 85248

The dashed part of the orbit path shows where the satellite is in the earth's shadow,  

DLR